[[{"header":{"parameterUnit":"m.s-1","parameterCategory":1,"la1":30.2991,"la2":30.254,"lo1":-89.0895,"lo2":-89.0444,"dy":0.0017,"dx":0.0017,"nx":28,"ny":28,"refTime":"2025-12-31T09:00:00:Z","depth":0,"parameterNumber":2,"parameterNumberName":"U-component_of_WINDS"},"data":[0,0,0,0,0,0,0,0,0,0,0,0,0,0,0,0,0,0,0,0,0,0,0,0,0,0,0,0,0,0,0,0,0,0,0,0,0,0,0,0,0,0,0,0,0,0,0,0,0,0,0,0,0,0,0,0,0,0,3.285,3.2851,0,3.2954,3.2955,3.2956,3.2917,3.2915,3.2912,3.291,3.3018,3.3023,3.3028,0,0,0,0,0,0,0,0,0,0,0,0,0,3.2619,3.2624,3.285,3.2851,3.2852,3.2954,3.2955,3.2957,3.2918,3.2915,3.2912,3.2909,3.3017,3.3023,3.3029,0,0,0,0,0,0,0,0,0,0,0,0,0,3.2721,3.2625,3.285,3.2845,3.2846,3.2953,3.2955,3.2957,3.2918,3.2915,3.2911,3.2908,3.3015,3.3022,3.3029,3.3148,0,0,3.3053,3.3056,0,0,0,0,0,0,0,0,3.2715,3.273,3.2844,3.2846,3.2847,3.2919,3.2913,3.3021,3.2919,3.2891,3.291,3.2906,3.2988,3.2998,3.3025,3.3153,3.3158,3.3054,3.3058,3.3061,3.3064,0,0,0,0,0,0,0,3.2708,3.2725,3.2891,3.2846,3.2848,3.2839,3.2849,3.2934,3.2958,3.2893,3.289,3.2903,3.2988,3.3018,3.3027,3.316,3.3053,3.306,3.3065,3.3068,3.3392,3.3395,0,0,0,0,0,0,3.2701,3.2719,3.2888,3.2894,3.2771,3.2846,3.2857,3.2899,3.2957,3.2963,3.2906,3.2901,3.3007,3.3018,3.3031,3.3174,3.3061,3.3069,3.3073,3.3388,3.3392,3.3397,0,0,0,0,0,0,3.2696,3.2716,3.2884,3.2806,3.2827,3.2853,3.2901,3.2903,3.2933,3.2967,3.2971,3.2932,3.3004,3.302,3.312,3.3178,3.3072,3.3079,3.3383,3.3389,3.3395,3.3462,0,0,0,0,0,0,3.2689,3.2715,3.2759,3.2807,3.2831,3.297,3.2904,3.2908,3.2946,3.294,3.2993,3.2998,3.3003,3.3108,3.3127,3.3186,3.3085,3.3378,3.3386,3.3393,3.3455,3.347,3.3482,0,0,0,0,0,3.2681,3.2774,3.2762,3.2782,3.2888,3.2973,3.2987,3.299,3.2951,3.2997,3.3019,3.2996,3.3168,3.3119,3.314,3.3202,3.3374,3.3383,3.3392,3.3449,3.3467,3.3482,0,0,0,0,0,0,3.2733,3.2781,3.2767,3.2878,3.2922,3.2966,3.3024,3.3009,3.3065,3.3057,3.306,3.3072,3.3174,3.3198,3.3142,3.3321,3.3265,3.3279,3.3301,3.3319,3.3332,3.3324,3.3091,0,0,0,0,0,3.2757,3.2822,3.286,3.2955,3.2978,3.2997,3.3035,3.3034,3.3079,3.3097,3.3127,3.3172,3.3237,3.3279,3.334,3.3458,3.3469,3.3511,3.3525,3.3536,3.3548,3.3613,3.3632,3.3426,3.3426,3.3426,0,0,3.2808,3.2842,3.2883,3.2966,3.3,3.3068,3.3013,3.3087,3.3138,3.3109,3.3204,3.3228,3.3279,3.3388,3.3438,3.3411,3.3608,3.3548,3.3556,3.3562,3.3624,3.3644,3.3661,3.3433,3.3431,3.343,0,0,3.2935,3.2967,3.305,3.3085,3.3137,3.3149,3.3169,3.3216,3.3231,3.3326,3.3306,3.3367,3.3478,3.3515,3.3549,3.3691,3.3673,3.3711,3.3784,3.3847,3.3863,3.3878,3.3929,3.3948,3.3723,3.3723,3.3723,0,3.2992,3.3093,3.3094,3.3171,3.3208,3.3185,3.3269,3.3303,3.3372,3.3399,3.3368,3.3507,3.354,3.3658,3.3693,3.3721,3.3744,3.3705,3.3861,3.3875,3.3889,3.3938,3.3957,3.3728,3.3727,3.3727,3.3726,0,3.3161,3.3231,3.3292,3.3359,3.3404,3.3483,3.3498,3.3543,3.3538,3.3554,3.3653,3.3691,3.376,3.3788,3.3784,3.3906,3.3888,3.3859,3.3804,3.3913,3.3959,3.3978,3.3734,3.3732,3.3731,3.373,0,0,3.3323,3.339,3.3413,3.3443,3.3499,3.3554,3.3633,3.37,3.3739,3.3788,3.3855,3.395,3.3923,3.3962,3.3962,3.4018,3.4129,3.3982,3.3983,3.4008,3.4267,3.4289,3.431,3.4117,3.4121,3.4124,3.4263,0,3.3455,3.3593,3.3597,3.3724,3.379,3.3769,3.3838,3.3881,3.3898,3.3957,3.3977,3.4044,3.4004,3.4027,3.4081,3.4104,3.4181,3.4094,3.418,3.4183,3.4168,3.4334,3.4357,3.4486,3.4281,3.4284,3.4286,0,3.3627,3.3681,3.3815,3.3862,3.389,3.3952,3.4014,3.407,3.4118,3.4127,3.417,3.4163,3.4245,3.4187,3.43,3.4241,3.4276,3.4293,3.4298,3.4307,3.4241,3.4347,3.4528,3.4547,3.4314,3.4312,3.431,0,3.3733,3.3839,3.3933,3.396,3.4017,3.4061,3.4087,3.4131,3.4172,3.4227,3.4253,3.4317,3.4352,3.4402,3.4412,3.4369,3.4526,3.4468,3.4536,3.4536,3.457,3.4568,3.4759,3.4593,3.4592,3.4592,3.4592,0,3.388,3.3962,3.3981,3.4039,3.4131,3.4136,3.4227,3.425,3.429,3.4352,3.4338,3.4397,3.4407,3.4469,3.4477,3.457,3.4586,3.4596,3.4597,3.4597,3.4596,3.4621,3.4612,3.4597,3.4596,3.4595,3.4594,0,3.4013,3.4029,3.413,3.4176,3.419,3.4256,3.4295,3.4351,3.4367,3.4447,3.4465,3.4491,3.4563,3.4578,3.4663,3.4669,3.478,3.4772,3.4764,3.4763,3.483,3.4823,3.5043,3.5073,3.4887,3.4889,3.4891,0,3.4106,3.4169,3.4222,3.4263,3.4291,3.4356,3.4398,3.4405,3.4448,3.4508,3.4557,3.4627,3.4684,3.48,3.4826,3.4892,3.4886,3.4958,3.4895,3.4894,3.4887,3.4883,3.489,3.497,3.4972,3.4974,3.4975,0,3.4269,3.4274,3.4334,3.4397,3.4446,3.4496,3.4544,3.4578,3.4592,3.4642,3.4715,3.4759,3.4846,3.4916,3.4982,3.5009,3.4995,3.4995,3.5014,3.5015,3.5007,3.5013,3.4797,3.499,3.4988,3.4987,3.4987,3.4986,3.4386,3.4441,3.4487,3.4554,3.4591,3.4636,3.4691,3.4714,3.4775,3.4846,3.4847,3.4927,3.4974,3.5061,3.5092,3.5155,3.5133,3.516,3.5167,3.5174,3.518,3.4997,3.5167,3.5167,3.5167,3.5166,3.5166,0,3.4548,3.4577,3.4639,3.4706,3.4759,3.4741,3.4793,3.4839,3.4909,3.4954,3.501,3.5095,3.5163,3.5196,3.5263,3.5308,3.5303,3.5325,3.5322,3.5329,3.5197,3.5173,3.5328,3.5328,3.5328,3.5328,3.5328,3.5328,3.4639,3.4732,3.4743,3.4854,3.4883,3.4961,3.4992,3.5034,3.507,3.5165,3.5221,3.5242,3.5282,3.5353,3.5415,3.5423,3.5448,3.5474,3.5479,3.5355,3.5338,3.5322,3.5301,3.5479,3.548,3.5606,3.5607,3.5608]},{"header":{"parameterUnit":"m.s-1","parameterCategory":1,"la1":30.2991,"la2":30.254,"lo1":-89.0895,"lo2":-89.0444,"dy":0.0017,"dx":0.0017,"nx":28,"ny":28,"refTime":"2025-12-31T09:00:00:Z","depth":0,"parameterNumber":3,"parameterNumberName":"V-component_of_WINDS"},"data":[0,0,0,0,0,0,0,0,0,0,0,0,0,0,0,0,0,0,0,0,0,0,0,0,0,0,0,0,0,0,0,0,0,0,0,0,0,0,0,0,0,0,0,0,0,0,0,0,0,0,0,0,0,0,0,0,0,0,-1.147,-1.1471,0,-1.1589,-1.159,-1.1592,-1.1616,-1.1615,-1.1614,-1.1613,-1.1738,-1.1742,-1.1746,0,0,0,0,0,0,0,0,0,0,0,0,0,-1.1266,-1.127,-1.147,-1.1471,-1.1473,-1.1589,-1.1591,-1.1592,-1.1616,-1.1615,-1.1614,-1.1613,-1.1737,-1.1742,-1.1747,0,0,0,0,0,0,0,0,0,0,0,0,0,-1.1367,-1.1271,-1.1469,-1.1499,-1.1502,-1.1589,-1.1591,-1.1593,-1.1616,-1.1615,-1.1614,-1.1612,-1.1735,-1.1741,-1.1747,-1.1814,0,0,-1.1767,-1.1769,0,0,0,0,0,0,0,0,-1.1361,-1.1374,-1.1493,-1.1497,-1.1501,-1.1586,-1.1565,-1.1667,-1.1617,-1.1573,-1.1613,-1.1612,-1.1689,-1.1699,-1.1724,-1.182,-1.1825,-1.1767,-1.1771,-1.1774,-1.1775,0,0,0,0,0,0,0,-1.1354,-1.1369,-1.1517,-1.1495,-1.15,-1.1507,-1.152,-1.1584,-1.1637,-1.1577,-1.1579,-1.1593,-1.1691,-1.1718,-1.1727,-1.1827,-1.1767,-1.1772,-1.1776,-1.1779,-1.1985,-1.1986,0,0,0,0,0,0,-1.1342,-1.1363,-1.1513,-1.1521,-1.1426,-1.1512,-1.1526,-1.156,-1.1637,-1.1647,-1.1594,-1.1593,-1.1708,-1.172,-1.1732,-1.1816,-1.1774,-1.1779,-1.1783,-1.1983,-1.1985,-1.1987,0,0,0,0,0,0,-1.1337,-1.1355,-1.1508,-1.1443,-1.1463,-1.1517,-1.1555,-1.1563,-1.1591,-1.1649,-1.1659,-1.1612,-1.1708,-1.1723,-1.1793,-1.1821,-1.1782,-1.1788,-1.1981,-1.1984,-1.1986,-1.1984,0,0,0,0,0,0,-1.1331,-1.1353,-1.1378,-1.1443,-1.1466,-1.1567,-1.1557,-1.1567,-1.1601,-1.1602,-1.1669,-1.1679,-1.1708,-1.1784,-1.18,-1.1829,-1.1793,-1.1979,-1.1982,-1.1985,-1.1982,-1.1986,-1.1989,0,0,0,0,0,-1.1324,-1.1373,-1.1379,-1.1397,-1.1498,-1.1568,-1.1582,-1.1613,-1.1603,-1.1629,-1.1667,-1.1676,-1.1815,-1.1791,-1.1809,-1.184,-1.1977,-1.1981,-1.1985,-1.198,-1.1985,-1.1989,0,0,0,0,0,0,-1.131,-1.1382,-1.1389,-1.146,-1.1508,-1.1572,-1.1606,-1.1618,-1.167,-1.1668,-1.1706,-1.1721,-1.179,-1.1822,-1.1794,-1.1909,-1.1896,-1.1903,-1.1886,-1.1891,-1.1895,-1.1886,-1.1798,0,0,0,0,0,-1.1315,-1.1365,-1.1425,-1.1482,-1.1506,-1.1552,-1.1583,-1.1604,-1.1655,-1.1675,-1.1718,-1.1769,-1.1824,-1.1859,-1.1913,-1.1986,-1.2002,-1.2017,-1.2021,-1.2024,-1.203,-1.2073,-1.2081,-1.1999,-1.1999,-1.1999,0,0,-1.1326,-1.1371,-1.1401,-1.1481,-1.152,-1.1572,-1.1568,-1.1623,-1.1663,-1.1684,-1.1753,-1.1787,-1.1845,-1.1918,-1.1952,-1.1947,-1.2056,-1.2028,-1.203,-1.2035,-1.2078,-1.2085,-1.2092,-1.2002,-1.2002,-1.2001,0,0,-1.1373,-1.1412,-1.1464,-1.1504,-1.1563,-1.1594,-1.1606,-1.1669,-1.1692,-1.1762,-1.1779,-1.1827,-1.1921,-1.1962,-1.1996,-1.206,-1.2071,-1.2077,-1.2098,-1.2139,-1.2146,-1.2151,-1.2176,-1.2184,-1.2083,-1.2083,-1.2083,0,-1.138,-1.1458,-1.149,-1.1545,-1.158,-1.1601,-1.1655,-1.1692,-1.1766,-1.1791,-1.1784,-1.1903,-1.1944,-1.2027,-1.2043,-1.2069,-1.2086,-1.2069,-1.2142,-1.2148,-1.2154,-1.2178,-1.2187,-1.2083,-1.2083,-1.2083,-1.2083,0,-1.1464,-1.1518,-1.1554,-1.1624,-1.1664,-1.1718,-1.1759,-1.1795,-1.1813,-1.1844,-1.1916,-1.1966,-1.2031,-1.2052,-1.207,-1.2139,-1.2134,-1.2134,-1.2121,-1.2162,-1.2185,-1.2194,-1.2084,-1.2083,-1.2083,-1.2083,0,0,-1.1505,-1.1593,-1.1606,-1.1639,-1.1707,-1.175,-1.1806,-1.1869,-1.19,-1.1951,-1.1999,-1.2079,-1.2079,-1.2117,-1.214,-1.2176,-1.2226,-1.2172,-1.2174,-1.2181,-1.2307,-1.2308,-1.2317,-1.2233,-1.2235,-1.2237,-1.2303,0,-1.1562,-1.1661,-1.1692,-1.1775,-1.1827,-1.1848,-1.1897,-1.1945,-1.1976,-1.2026,-1.2061,-1.2117,-1.2113,-1.2136,-1.2173,-1.2212,-1.2252,-1.2207,-1.2281,-1.2283,-1.2266,-1.2329,-1.233,-1.2389,-1.2312,-1.2313,-1.2314,0,-1.164,-1.1692,-1.1781,-1.1843,-1.1866,-1.1909,-1.197,-1.2016,-1.2072,-1.2092,-1.2135,-1.2155,-1.2216,-1.2199,-1.2284,-1.2253,-1.2285,-1.2309,-1.2313,-1.2321,-1.2302,-1.2341,-1.2409,-1.2419,-1.2329,-1.2327,-1.2326,0,-1.1663,-1.1755,-1.182,-1.1848,-1.1922,-1.1952,-1.1985,-1.2038,-1.2075,-1.2128,-1.2153,-1.2213,-1.2246,-1.2293,-1.2329,-1.2314,-1.2412,-1.2398,-1.2433,-1.2432,-1.2453,-1.2451,-1.2528,-1.2472,-1.2471,-1.2471,-1.2471,0,-1.1723,-1.1777,-1.1832,-1.1872,-1.1934,-1.1969,-1.203,-1.2063,-1.2111,-1.216,-1.2182,-1.2227,-1.2272,-1.2323,-1.2352,-1.2419,-1.2434,-1.2453,-1.2461,-1.2452,-1.245,-1.2474,-1.2472,-1.2474,-1.2473,-1.2473,-1.2472,0,-1.1759,-1.1798,-1.1871,-1.1935,-1.1953,-1.1995,-1.2051,-1.2092,-1.2124,-1.2185,-1.2202,-1.2253,-1.2315,-1.2356,-1.2435,-1.2455,-1.2529,-1.2534,-1.251,-1.2514,-1.2546,-1.2543,-1.2643,-1.2658,-1.2589,-1.259,-1.2591,0,-1.1795,-1.1837,-1.1906,-1.194,-1.1972,-1.2026,-1.2063,-1.2101,-1.2139,-1.2206,-1.2239,-1.2302,-1.2355,-1.2453,-1.2499,-1.256,-1.2568,-1.2599,-1.2577,-1.2568,-1.257,-1.2568,-1.2573,-1.2602,-1.2603,-1.2603,-1.2604,0,-1.1856,-1.1873,-1.1926,-1.1985,-1.2029,-1.2078,-1.2127,-1.2154,-1.22,-1.2242,-1.2305,-1.2346,-1.2427,-1.2491,-1.2556,-1.2591,-1.2606,-1.261,-1.2621,-1.2614,-1.2598,-1.2609,-1.2521,-1.2608,-1.2607,-1.2607,-1.2607,-1.2607,-1.1895,-1.1933,-1.1988,-1.2046,-1.2087,-1.2132,-1.2174,-1.2212,-1.2265,-1.2334,-1.2353,-1.2419,-1.2476,-1.2565,-1.2601,-1.2655,-1.2652,-1.2668,-1.2672,-1.2676,-1.2677,-1.2589,-1.2667,-1.2667,-1.2667,-1.2667,-1.2667,0,-1.1958,-1.1994,-1.2047,-1.2115,-1.2161,-1.217,-1.2225,-1.2263,-1.2321,-1.2372,-1.2423,-1.2497,-1.2559,-1.2609,-1.2673,-1.2707,-1.2716,-1.2723,-1.2721,-1.273,-1.2676,-1.266,-1.2715,-1.2715,-1.2715,-1.2715,-1.2715,-1.2715,-1.1996,-1.2062,-1.2086,-1.2174,-1.2211,-1.2275,-1.2306,-1.2349,-1.239,-1.2471,-1.2522,-1.2554,-1.2606,-1.2674,-1.2732,-1.2745,-1.2768,-1.2774,-1.279,-1.2738,-1.2733,-1.2728,-1.2714,-1.2779,-1.2779,-1.2839,-1.284,-1.284]}]]